Preview of NWS' New Version of Forecast
This preview is not operational and should not be used for support decisions.

Regional Weather Roundup (RWR)

Issued by National Weather Service (NWS)

                            
000
ASUS44 KMEG 181710
RWRTN 
TENNESSEE HOURLY STATE WEATHER ROUNDUP
NATIONAL WEATHER SERVICE MEMPHIS TN
1200 PM CDT THU APR 18 2019

TNZ002-004-019-021-049-052-054-088>092-181800-
WEST TENNESSEE
  
CITY           SKY/WX    TMP DP  RH WIND       PRES   REMARKS
MEMPHIS INTL   RAIN      65  63  93 VRB3      29.77S                  
NWS MEMPHIS      N/A     66 N/A N/A MISG        N/A                   
JACKSON        CLOUDY    64  63  96 S10       29.76F FOG              
DYERSBURG      CLOUDY    65  63  93 S5          N/A                   
SOMERVILLE     PTSUNNY   66  64  94 S10       29.76R                  
COVINGTON      MOSUNNY   66  63  88 VRB3      29.75S                  
UNION CITY     CLOUDY    63  63 100 S8        29.73F FOG              
BOLIVAR        PTSUNNY   66  63  88 S9G16     29.76F                  
PARIS          CLOUDY    64  61  88 S10       29.74F                  
HUNTINGDON     CLOUDY    66  63  88 S13       29.75F                  
LEXINGTON      CLOUDY    70  61  73 S13       29.76F                  
SELMER         CLOUDY    68  61  77 VRB6G14   29.77F                  
SAVANNAH       CLOUDY    72  61  68 SW12      29.78S                  
$$

TNZ008-025-027-028-033-062-065-066-181800-
NORTH MIDDLE TENNESSEE
  
CITY           SKY/WX    TMP DP  RH WIND       PRES   REMARKS
NASHVILLE      PTSUNNY   75  56  51 S18G30    29.83F                  
DICKSON        PTSUNNY   72  59  64 S15       29.76F                  
CLARKSVILLE    CLOUDY    71  58  63 S9        29.75F                  
LEBANON        MOSUNNY   73  57  56 S23G30    29.82F                  
SMYRNA         PTSUNNY   74  59  59 S15G25    29.84F                  
MURFREESBORO   PTSUNNY   73  57  56 S20G26    29.83F                  
COOKEVILLE     MOSUNNY   75  55  50 SW21      29.88F                  
LIVINGSTON     SUNNY     73  54  49 SW20G31   29.86F                  
GALLATIN       PTSUNNY   72  57  60 S9G20     29.86F                  
CROSSVILLE     FAIR      71  54  54 S10G23    29.92F                  
ROCKWOOD       PTSUNNY   72  55  56 SW15G24   29.92F                  
$$

TNZ061-075-076-078-094-096-097-181800-
SOUTH MIDDLE TENNESSEE
  
CITY           SKY/WX    TMP DP  RH WIND       PRES   REMARKS
LAWRENCEBURG   MOSUNNY   72  59  64 S14G25    29.83F                  
LEWISBURG      MOSUNNY   72  59  64 S13G20    29.83F                  
FAYETTEVILLE   PTSUNNY   72  59  64 S18       29.86F                  
TULLAHOMA      PTSUNNY   70  57  64 S13G20    29.88F                  
WINCHESTER     PTSUNNY   72  55  56 SW18G28   29.90F                  
MCMINNVILLE    MOSUNNY   73  55  53 SW14G24   29.89F                  
COLUMBIA       MOSUNNY   72  61  68 S13G22    29.80F                  
SHELBYVILLE    MOSUNNY   72  59  64 S17G23    29.86F                  
$$

TNZ017-018-042-046-047-181800-
NORTHEAST TENNESSEE
  
CITY           SKY/WX    TMP DP  RH WIND       PRES   REMARKS
TRI CITIES     FAIR      80  47  31 SW10      29.91F                  
ELIZABETHTON   FAIR      81  46  30 SW9G16    29.91F                  
GREENEVILLE    SUNNY     79  50  36 S9G20     29.90F                  
$$

TNZ012-013-036-069-073-074-181800-
CENTRAL EAST TENNESSEE
  
CITY           SKY/WX    TMP DP  RH WIND       PRES   REMARKS
KNOXVILLE      PTSUNNY   80  53  39 SW24G32   29.89F                  
OAK RIDGE      PTSUNNY   78  55  44 SW8G24    29.91F                  
DOWNTOWN KNOXV SUNNY     81  55  41 SW13G23   29.90F                  
GATLINBURG     SUNNY     82  48  30 SW15G22   29.88F                  
MORRISTOWN     SUNNY     77  54  44 W8G15     29.90F                  
JACKSBORO      MOSUNNY   75  55  50 S21G29    29.92F                  
$$

TNZ083-085-099-181800-
SOUTHEAST TENNESSEE
  
CITY           SKY/WX    TMP DP  RH WIND       PRES   REMARKS
CHATTANOOGA    PTSUNNY   74  55  51 S16G25    29.94S                  
DAYTON         PTSUNNY   73  55  53 SW13G23   29.92F                  
$$

SKY/WX REPORTED AS FAIR MEANS FEW OR NO CLOUDS BELOW
12 THOUSAND FEET.